Tracking 28915 objects as of 30-May-2024
HD Live streaming from Space Station
objects crossing your sky now

CENTAURI 5 (TYVAK-0212)

Track CENTAURI 5 (TYVAK-0212) now!
10-day predictions
CENTAURI 5 (TYVAK-0212) is classified as:


NORAD ID: 52742
Int'l Code: 2022-057L
Perigee: 406.1 km
Apogee: 414.4 km
Inclination: 97.6 °
Period: 92.6 minutes
Semi major axis: 6781 km
RCS: Unknown
Launch date: May 25, 2022
Source: United States (US)
Launch site: AIR FORCE EASTERN TEST RANGE (AFETR)

Uplink (MHz):
Downlink (MHz):
Beacon (MHz):
Mode:
Call sign:
Status: Unknown

Your satellite tracking list
Your tracking list is empty




NASA's NSSDC Master Catalog

Two Line Element Set (TLE):
1 52742U 22057L   24150.86750763  .00054217  00000-0  81488-3 0  9991
2 52742  97.5659 283.2341 0006099 192.1022 168.0086 15.54679745112182
Source of the keplerian elements: AFSPC